Flag for USA Past Weather in Bryan – College Station, Texas, USA — Yesterday and Last 2 Weeks

Now
81 °F

Sunny.


Feels Like: 89 °F
Forecast: 81 / 99 °F
Wind: 8 mph from South

Location: Easterwood Field

Current Time: Aug 17, 2017 at 8:52:15 am

Latest Report: Aug 17, 2017 at 7:53 am


Visibility: 9 mi

Pressure: 30.00 "Hg

Humidity: 91%

Dew Point: 78 °F

Location of Bryan – College StationLocation

Past Weather in Bryan – College Station — Graph

°F

Bryan – College Station Temperature Yesterday

Maximum temperature yesterday: 99 °F (at 2:53 pm)
Minimum temperature yesterday: 78 °F (at 6:53 am)
Average temperature yesterday: 87 °F

High & Low Weather Summary for the Past Weeks

 TemperatureHumidityPressure
High100 °F (Aug 6, 3:53 pm)100% (Aug 7, 6:20 am)30.11 "Hg (Aug 7, 6:20 am)
Low74 °F (Aug 7, 4:00 am)35% (Aug 4, 3:53 pm)29.76 "Hg (Aug 14, 6:53 pm)
Average84 °F76%29.94 "Hg
* Reported Aug 2 6:53 am — Aug 17 6:53 am, Bryan – College Station. Weather by CustomWeather, © 2017

Note: Actual official high and low records may vary slightly from our data, if they occured in-between our weather recording intervals... More about our weather records

Advertising

Bryan – College Station Weather History for the Previous 24 Hours

Scroll right to see more
 ConditionsComfort  
Time TempWeatherWind HumidityBarometerVisibility
6:53 am
Thu, Aug 17
80 °FSunny.6 mph94%29.99 "Hg9 mi
6:25 am80 °FPassing clouds.7 mph94%30.00 "Hg10 mi
5:53 am81 °FPassing clouds.5 mph91%29.99 "Hg10 mi
5:01 am82 °FMostly cloudy.9 mph88%30.00 "Hg10 mi
3:53 am82 °FMostly cloudy.8 mph88%29.98 "Hg10 mi
2:53 am82 °FOvercast.13 mph88%29.96 "Hg10 mi
1:53 am82 °FOvercast.9 mph88%29.95 "Hg10 mi
1:17 am82 °FPassing clouds.10 mph88%29.98 "Hg10 mi
12:53 am83 °FPassing clouds.9 mph82%29.96 "Hg10 mi
11:53 pm
Wed, Aug 16
83 °FClear.14 mph79%29.94 "Hg10 mi
10:53 pm85 °FClear.14 mph72%29.93 "Hg10 mi
9:53 pm86 °FClear.12 mph65%29.92 "Hg10 mi
8:53 pm89 °FClear.15 mph55%29.91 "Hg10 mi
7:53 pm91 °FSunny.14 mph54%29.88 "Hg10 mi
6:53 pm94 °FSunny.16 mph49%29.87 "Hg10 mi
5:53 pm97 °FSunny.22 mph46%29.87 "Hg10 mi
4:53 pm96 °FScattered clouds.17 mph49%29.87 "Hg10 mi
3:53 pm98 °FPassing clouds.16 mph42%29.88 "Hg10 mi
2:53 pm99 °FPassing clouds.13 mph41%29.89 "Hg10 mi
1:53 pm96 °FPassing clouds.13 mph44%29.92 "Hg10 mi
12:53 pm93 °FPassing clouds.12 mph50%29.94 "Hg10 mi
11:53 am92 °FScattered clouds.16 mph54%29.96 "Hg10 mi
10:53 am90 °FBroken clouds.14 mph59%29.96 "Hg10 mi
9:53 am86 °FBroken clouds.14 mph72%29.96 "Hg10 mi
9:10 am84 °FBroken clouds.12 mph83%29.97 "Hg10 mi
8:58 am83 °FPartly sunny.12 mph85%29.97 "Hg10 mi
8:21 am81 °FScattered clouds.8 mph91%29.97 "Hg10 mi
Weather by CustomWeather, © 2017

See weather overviewHow to use our weather pages